RH
31 34 37 39 41 41 41 40 40 40 40 39 35 33 31 27 22 19 16 14 13 13 13 13 13 12 12 13 13 13 14 14 13 13 15 14 13 13 10 10 9 9 9 10 15 16 16 19 19 18 16 15 13 14 14 13 13 13 11 12 12 11 11 11 10 8 9 13 14 13 9 11 21 19 18 20 29 35 31 36 39 32 34 37 36 36 35 37
31 31 32 34 38 41 42 41 41 41 42 41 38 36 34 30 25 21 18 16 14 14 14 14 13 13 13 12 12 13 14 14 14 15 15 14 13 11 10 10 9 10 8 10 14 13 14 17 18 18 18 18 16 14 14 13 13 12 11 11 12 12 12 11 10 10 11 15 15 13 10 10 22 27 23 21 27 35 34 35 38 33 31 33 32 32 34 36
33 32 32 32 34 36 38 39 41 42 43 43 42 40 37 34 30 25 20 17 17 16 15 15 14 14 13 13 13 13 13 16 17 17 16 14 13 12 11 10 10 10 9 12 13 10 13 17 19 19 19 20 18 16 15 13 13 12 11 11 12 12 12 12 12 13 14 16 15 12 11 8 19 29 25 25 30 33 34 36 40 35 28 29 32 32 34 36
33 33 32 32 32 32 33 35 37 40 42 44 43 41 40 38 35 31 23 19 19 17 17 16 15 15 14 14 13 12 16 19 18 17 17 17 15 13 12 11 10 10 10 12 13 11 13 17 20 20 21 20 19 17 15 14 13 11 11 12 14 14 13 14 12 12 14 14 13 10 10 11 16 20 21 30 36 32 33 35 38 41 36 30 30 32 35 35
33 33 33 32 31 31 32 31 31 33 36 40 41 40 41 39 37 36 29 21 20 18 18 17 16 16 15 15 14 14 20 19 17 18 17 17 16 14 13 11 11 10 10 12 12 11 12 15 18 19 20 20 19 18 15 14 14 12 10 10 14 16 14 14 13 12 12 11 10 10 10 13 14 14 18 30 36 31 33 33 36 47 46 35 31 34 35 34
33 33 34 33 32 32 32 30 29 29 31 36 38 38 39 39 37 36 32 23 19 18 17 16 16 15 15 16 14 16 22 19 18 21 17 17 16 15 14 12 12 11 10 12 12 11 11 14 16 18 19 19 19 19 16 14 13 12 12 11 12 16 15 14 14 12 11 10 10 10 11 12 12 16 19 26 32 33 37 40 42 48 47 42 38 36 34 33
33 34 34 35 34 33 31 29 28 28 30 34 38 38 38 38 37 35 34 27 19 17 16 15 15 14 14 14 14 18 21 18 18 20 17 17 17 15 15 14 12 12 11 12 12 11 11 13 15 16 18 18 18 19 17 14 13 12 12 13 12 13 14 15 15 12 10 10 10 10 11 11 12 16 19 24 31 35 42 45 42 44 45 48 46 37 35 32
34 35 35 36 35 34 32 29 27 29 32 34 38 40 38 39 38 36 35 30 22 18 17 16 15 15 14 13 16 19 17 17 16 16 17 18 18 16 15 15 13 12 13 13 11 11 11 13 14 15 16 17 17 18 18 16 14 11 10 13 14 12 12 14 14 12 10 11 11 10 11 12 13 15 19 25 28 32 42 40 37 42 45 50 46 37 34 31
32 34 35 36 37 35 33 31 28 29 35 38 40 42 41 40 38 36 34 30 23 19 18 17 16 15 14 14 19 19 14 16 15 15 18 19 20 17 15 16 15 13 14 13 11 11 12 13 13 14 15 17 18 18 18 17 15 13 10 11 13 13 12 11 12 11 10 11 11 12 13 13 14 15 18 25 27 29 36 36 36 39 41 47 46 36 32 30
32 33 34 35 37 37 35 33 30 30 35 39 41 42 42 41 39 36 33 29 23 19 18 17 17 16 17 21 23 18 14 16 16 17 19 17 19 19 17 19 18 15 15 14 12 12 12 13 13 14 15 18 19 18 18 18 17 17 14 10 11 13 12 11 11 10 12 12 12 13 15 14 14 13 15 23 25 23 30 37 45 45 42 47 42 33 30 30
33 34 35 35 36 37 37 36 34 32 36 39 41 43 42 42 39 36 33 28 22 19 17 17 18 17 21 28 25 17 16 18 18 20 20 17 19 21 21 21 19 17 15 14 12 11 12 12 13 13 14 16 18 19 19 18 18 19 16 12 11 11 13 13 11 13 15 15 14 14 15 15 14 13 13 19 21 20 26 35 51 53 46 44 38 31 29 29
34 36 38 38 36 35 36 39 39 37 38 39 42 43 41 41 38 36 35 30 24 20 17 17 17 17 25 30 25 18 18 20 21 20 20 20 21 23 23 22 21 18 15 14 12 12 12 13 12 13 14 15 17 18 19 17 16 17 15 14 13 11 12 14 12 14 16 16 15 14 15 15 14 14 13 18 21 22 25 31 45 51 44 40 36 31 28 28
36 38 40 41 39 37 36 39 42 43 43 42 43 43 42 39 36 36 35 31 28 23 19 18 16 22 31 29 22 19 19 20 20 18 19 20 21 23 23 22 21 19 16 14 14 13 13 14 13 12 14 16 16 17 19 18 15 14 13 13 14 13 12 12 12 13 15 16 16 15 15 15 14 14 16 21 23 22 26 33 42 51 49 42 37 33 30 29
34 38 42 45 44 42 40 41 43 45 46 45 44 43 40 37 34 33 31 29 29 24 21 19 18 29 36 27 19 19 19 19 18 17 18 19 19 21 22 21 21 20 18 15 16 16 14 14 14 12 13 15 17 18 19 18 15 13 13 12 13 14 13 12 12 13 15 17 17 15 14 15 13 14 21 25 23 21 25 33 42 54 57 46 37 36 33 30
32 38 44 47 46 44 43 44 45 46 47 47 46 42 36 32 29 29 27 26 28 23 21 22 25 33 34 25 19 18 18 18 18 17 17 17 18 19 20 21 21 21 19 16 17 18 15 15 15 14 13 12 16 22 21 18 16 13 13 13 12 14 14 12 12 13 15 17 17 14 14 17 15 15 22 25 22 21 23 28 39 55 61 52 44 40 36 32
33 40 45 46 45 44 44 46 47 47 47 47 46 39 32 29 25 24 23 23 24 22 24 30 32 35 31 23 20 18 17 18 17 16 15 15 17 19 19 21 21 21 21 19 18 20 18 16 16 13 13 12 14 23 23 18 18 15 13 14 13 12 15 14 12 14 15 16 17 13 13 20 20 18 22 24 22 22 24 26 34 51 59 56 52 47 42 38
35 42 45 44 42 43 44 46 47 47 46 44 40 34 29 28 25 22 20 19 22 24 27 34 34 33 29 23 21 18 16 17 16 15 15 14 16 18 21 22 21 20 21 21 19 19 17 15 15 13 12 13 15 20 23 19 19 17 13 13 13 11 17 18 14 14 14 15 16 12 14 22 23 22 24 25 22 22 25 26 32 49 57 53 52 49 44 43
37 43 44 43 43 43 44 45 46 46 46 41 34 32 31 29 27 26 23 19 26 31 31 33 33 31 28 23 21 19 17 17 16 16 15 14 14 17 22 23 21 20 23 23 19 18 17 14 14 13 12 14 16 18 20 19 18 18 14 14 14 11 17 22 16 14 14 14 15 12 17 25 26 24 24 23 22 25 29 30 35 49 56 52 48 47 45 46
38 42 43 44 44 44 44 45 44 44 44 39 35 36 35 33 32 34 34 29 30 32 29 31 30 27 27 25 22 21 20 18 17 17 16 15 14 15 22 25 25 24 25 24 20 18 17 15 15 14 13 13 15 18 18 17 15 16 15 14 16 13 15 23 19 14 14 15 14 12 18 27 27 26 24 21 24 30 33 34 37 45 51 51 48 46 48 51
38 39 41 45 45 43 43 43 43 44 43 40 41 41 39 40 38 37 40 35 30 27 25 30 30 24 24 27 26 23 22 20 19 18 17 16 14 14 22 29 30 30 26 23 19 18 18 16 15 14 15 14 16 19 17 15 15 16 16 14 16 17 15 20 20 15 14 15 14 12 18 25 27 27 25 22 27 33 37 38 37 40 46 49 47 47 52 56
39 39 41 46 46 43 43 44 45 44 42 43 46 44 42 45 45 47 49 40 33 28 26 31 31 26 25 28 28 25 23 22 20 20 18 16 14 14 21 28 33 32 27 22 19 18 18 17 15 13 16 18 19 21 18 16 16 18 19 14 14 17 17 20 21 16 14 15 14 12 17 25 30 31 26 20 23 30 37 41 37 37 45 46 44 49 56 57
40 40 42 45 45 43 44 46 47 47 46 47 49 46 44 44 45 52 56 48 40 33 28 29 28 26 27 27 27 25 24 24 21 23 22 17 15 15 20 26 30 31 26 22 21 20 19 17 15 14 16 20 22 22 20 19 18 19 20 15 14 16 18 21 19 15 15 15 15 14 15 25 32 33 27 22 25 29 32 36 36 39 46 46 43 49 56 58
41 42 46 47 44 43 46 49 49 50 52 51 48 45 41 39 39 44 48 43 39 34 30 29 26 26 27 26 26 25 25 25 23 25 25 18 15 17 21 24 26 29 26 23 23 21 19 16 15 16 18 19 21 23 21 21 22 22 19 15 15 15 16 21 20 15 15 15 18 20 18 26 33 32 29 29 33 34 30 29 34 41 48 52 52 53 56 59
41 43 49 49 45 44 48 49 47 49 53 49 45 42 39 37 38 38 37 33 32 32 32 30 27 25 25 25 26 24 25 26 24 25 25 18 17 17 21 23 24 28 28 25 25 23 19 17 15 18 19 19 23 24 21 22 25 23 19 14 16 16 14 23 24 17 15 15 20 28 27 28 32 30 32 33 30 29 27 27 31 38 46 51 51 51 55 58
41 46 51 50 48 47 47 48 47 48 49 45 40 38 36 36 37 35 35 35 33 31 29 29 28 24 23 24 25 24 24 25 22 25 25 19 17 18 21 24 24 28 30 27 29 29 24 21 18 17 19 19 23 24 21 24 26 22 18 15 17 19 19 26 27 19 16 16 18 28 33 32 30 28 33 34 29 28 30 33 34 36 42 44 42 45 50 55
42 48 52 51 51 50 47 48 53 50 45 41 36 36 37 36 37 38 40 41 36 33 32 31 28 24 22 24 25 24 24 22 20 25 28 21 17 19 25 28 26 30 33 31 33 34 29 25 21 18 19 18 20 23 24 25 24 20 17 15 18 22 24 29 31 22 18 16 17 22 27 33 31 24 28 34 35 38 38 39 42 41 41 40 39 42 47 50
44 50 53 53 54 54 51 52 55 49 45 44 39 41 43 38 41 46 51 50 38 33 35 34 30 25 23 23 23 22 22 21 18 23 29 24 17 20 28 33 29 30 34 35 36 34 30 27 23 20 19 19 21 26 27 23 20 19 17 15 17 23 25 31 35 27 19 19 21 18 18 30 37 30 29 31 36 45 46 44 47 43 37 36 35 40 44 44
48 52 55 56 56 57 56 56 55 47 47 49 44 44 43 40 47 52 57 56 43 37 37 34 30 26 25 25 22 20 19 19 18 19 25 23 19 21 29 34 31 29 32 35 34 31 30 29 26 23 22 24 26 25 23 19 17 22 23 16 16 23 26 30 35 31 23 24 26 24 18 23 36 42 39 35 37 47 51 51 50 41 35 35 35 39 42 41
53 55 57 58 56 56 57 58 56 48 45 45 43 46 42 44 54 57 61 58 43 42 44 39 32 25 26 28 24 20 18 20 19 17 21 22 20 22 27 33 33 31 32 34 33 29 28 30 31 30 27 26 24 20 20 17 17 26 30 22 16 22 29 33 36 32 28 29 30 32 26 19 32 50 49 42 43 48 53 54 50 42 37 37 36 37 40 40
56 56 59 60 58 57 57 58 55 51 48 43 43 48 46 51 60 62 67 60 45 45 48 46 38 27 27 28 25 21 18 21 21 17 21 21 20 24 28 33 36 33 32 34 34 29 26 30 36 35 28 24 21 18 20 18 17 27 36 30 18 18 24 28 31 30 27 28 29 34 34 24 35 55 52 44 46 49 55 56 50 43 40 38 36 36 38 38
58 57 61 63 62 61 60 58 52 49 48 43 47 52 51 61 70 69 64 52 49 55 51 47 43 33 31 29 25 22 18 24 24 18 21 22 21 24 29 34 38 37 34 34 34 30 29 32 35 32 26 23 21 19 21 18 17 30 40 35 23 18 19 20 26 30 28 27 26 32 37 28 31 43 44 46 51 53 57 57 50 41 37 37 37 36 37 38
59 56 61 65 65 65 65 62 55 51 49 49 54 59 62 72 77 74 64 49 54 65 57 51 47 38 36 31 26 24 19 25 29 24 23 24 22 23 26 31 37 40 39 36 33 30 32 35 32 29 27 24 21 22 25 20 19 32 36 30 24 20 20 20 23 28 28 27 26 31 36 31 29 34 42 52 56 57 59 57 47 37 35 38 38 37 38 39
59 56 61 67 68 68 70 68 60 56 56 57 60 64 75 82 71 62 59 54 58 64 59 59 53 42 38 33 29 25 21 27 36 34 28 27 27 25 25 29 34 40 40 39 35 28 34 41 34 30 28 24 22 24 28 23 22 29 27 21 21 20 21 23 23 24 23 25 30 31 32 36 43 51 57 61 60 61 62 54 42 36 36 38 38 39 41 41
59 59 63 69 72 71 73 72 64 59 59 58 60 70 82 82 65 54 56 59 62 62 59 61 59 49 42 36 34 28 22 30 41 40 34 30 30 29 28 30 32 35 37 41 36 25 34 44 36 30 28 24 24 26 27 23 21 24 20 19 21 21 22 22 22 24 22 24 30 29 29 39 54 63 65 64 62 60 58 52 43 38 38 39 40 40 42 41
60 62 66 71 74 71 73 74 67 62 60 55 59 75 81 72 62 58 60 65 67 63 59 60 59 58 51 43 42 32 24 34 45 41 35 31 31 30 29 31 31 32 36 40 35 25 32 40 33 29 28 25 27 28 26 22 21 21 18 19 23 23 26 24 23 27 28 29 30 30 41 54 60 68 67 62 61 58 54 53 47 41 39 39 40 40 40 40
64 67 72 75 72 68 70 73 68 64 60 55 61 73 71 64 62 63 64 69 69 63 63 62 57 60 60 50 46 38 27 36 44 40 35 31 29 30 29 29 30 31 34 37 33 28 30 34 31 29 29 27 28 29 29 23 20 21 19 18 21 25 31 32 31 33 34 37 34 32 54 69 66 73 76 64 61 59 56 56 50 43 40 41 41 41 41 42
72 72 76 75 69 66 69 72 70 66 61 58 62 66 60 59 63 64 67 70 68 63 63 64 53 52 58 52 46 41 31 34 40 40 40 33 28 30 29 28 29 30 32 34 33 31 29 31 33 30 28 28 26 27 30 27 25 26 23 20 21 25 31 35 36 36 35 38 36 32 51 66 61 68 76 68 64 63 60 59 55 46 42 41 43 43 43 44
79 77 78 75 71 73 75 75 73 67 62 61 65 64 59 62 64 63 66 69 69 64 62 66 59 50 55 53 46 41 31 33 39 40 42 37 29 29 27 28 30 31 32 33 36 36 30 34 40 35 29 28 26 25 28 31 29 27 25 22 23 25 28 33 36 36 34 36 38 36 45 55 53 56 66 67 64 64 64 61 55 48 43 42 44 44 45 46
82 80 80 75 76 82 82 79 73 65 63 66 72 71 64 67 67 62 63 65 67 65 63 70 67 59 61 56 47 40 30 32 41 41 42 41 34 31 27 27 30 31 30 32 39 41 35 35 41 39 30 27 28 25 26 30 26 25 28 27 26 29 30 32 34 35 35 37 42 44 41 42 46 49 57 62 60 60 64 60 51 47 45 45 45 45 46 48
83 79 78 77 80 87 86 79 69 60 62 68 75 75 69 70 68 62 61 61 63 65 65 70 69 68 72 62 49 41 29 32 43 43 44 43 38 36 29 27 31 30 30 34 39 41 37 36 42 42 34 27 27 25 23 27 23 23 29 26 25 31 35 37 38 38 38 38 41 45 39 39 49 53 56 61 60 57 59 55 48 47 48 48 49 49 49 51
81 79 83 85 86 89 84 73 61 56 61 66 72 75 70 69 67 62 62 61 60 62 63 66 66 69 74 64 53 45 30 34 46 46 46 45 41 39 33 31 34 33 31 35 39 41 40 38 42 44 37 26 25 24 24 26 25 24 26 24 24 30 35 41 42 40 38 37 38 38 37 47 60 59 59 65 62 56 55 51 47 49 51 52 53 53 53 53
80 83 90 90 87 85 75 64 59 58 61 64 68 73 69 66 67 65 64 60 58 60 60 60 60 66 69 61 56 49 34 37 48 47 47 47 41 41 37 33 34 33 32 33 36 40 41 40 43 43 37 28 25 24 23 26 27 25 25 27 28 30 34 39 39 38 37 35 34 32 38 58 68 61 63 69 64 56 53 51 51 53 55 56 57 56 55 54
82 89 95 89 82 77 66 60 59 58 60 61 62 67 68 66 68 68 63 57 57 61 64 61 58 65 70 62 59 53 39 42 50 48 48 46 43 45 40 35 35 33 32 32 35 40 42 42 43 40 36 30 26 24 23 27 32 29 26 29 31 31 33 34 33 34 36 35 33 32 43 67 76 70 69 70 64 60 57 56 58 59 59 60 59 58 57 56
89 97 98 86 75 69 63 61 60 56 58 59 58 61 63 63 64 63 57 55 56 60 67 68 61 64 70 64 59 54 45 44 48 49 48 45 47 49 42 37 37 34 32 33 35 40 43 42 41 42 41 35 30 30 29 30 34 32 29 30 33 34 34 33 33 34 36 36 34 36 50 68 76 76 73 68 65 65 62 59 61 63 62 62 61 61 59 59
91 96 95 82 71 67 66 68 70 67 62 58 57 59 58 58 57 54 53 56 58 60 68 71 64 61 66 64 58 54 48 44 45 48 48 50 54 51 43 40 38 34 34 33 34 39 42 41 40 44 43 34 33 36 32 31 34 35 34 29 30 35 34 33 36 37 38 36 31 37 57 74 76 75 74 69 67 68 65 59 60 63 64 64 64 63 61 61
93 94 90 80 71 68 71 74 78 78 69 60 58 61 61 59 57 53 54 62 66 67 71 71 64 60 62 59 56 53 48 42 45 48 49 55 60 53 45 42 36 35 37 37 38 41 41 40 43 49 47 37 36 39 36 36 36 38 38 30 26 32 32 30 34 37 38 36 33 41 58 72 75 75 74 72 69 68 65 60 60 65 66 67 66 65 64 63
95 94 85 77 70 68 71 73 75 79 76 67 64 66 65 61 60 62 66 72 77 78 76 72 65 62 60 57 55 54 49 45 50 54 54 59 63 56 49 43 37 39 41 38 40 42 43 46 51 58 57 47 43 43 40 40 39 39 40 34 31 34 34 31 32 34 36 36 42 52 53 58 70 73 69 70 68 65 63 61 63 66 68 68 68 66 65 62
93 93 86 78 73 70 70 70 72 76 78 75 71 71 68 64 68 77 81 83 84 81 80 78 69 61 59 57 57 57 52 47 50 54 55 59 61 58 52 44 42 45 42 39 42 43 47 53 56 58 58 52 52 53 47 40 37 37 37 38 38 37 37 36 34 35 38 41 53 63 55 55 69 72 67 67 63 59 60 62 63 64 66 66 63 61 60 58
88 93 92 83 78 77 71 67 69 73 78 81 77 73 74 74 80 86 88 90 88 81 81 81 72 62 58 57 59 57 52 49 51 53 57 60 58 56 53 46 45 47 43 42 45 43 46 54 56 57 56 53 54 56 51 45 43 39 37 39 42 39 39 43 44 46 49 52 61 66 60 61 69 67 62 60 57 57 61 63 62 62 62 60 57 55 55 56
87 91 93 85 80 80 75 72 73 73 78 81 76 74 77 81 86 89 89 93 92 85 80 76 72 67 61 58 60 58 53 51 52 56 65 69 63 59 55 48 45 47 44 45 47 45 49 56 57 57 59 59 57 54 52 52 53 52 47 45 46 44 44 48 53 58 61 64 68 65 61 66 65 58 56 55 55 60 62 61 62 62 63 62 59 57 56 57
88 90 94 90 83 77 75 77 75 74 78 78 74 77 81 82 87 91 91 89 89 88 81 74 74 70 63 61 62 60 56 55 56 59 64 67 66 63 57 49 47 47 45 48 51 49 53 60 58 53 58 65 62 57 54 55 58 63 64 60 57 56 56 56 60 65 65 66 69 63 59 62 60 53 54 56 59 63 62 61 64 65 66 65 63 61 60 58
91 92 94 93 85 76 75 77 74 77 81 76 73 81 85 84 87 90 90 86 84 85 80 76 77 74 68 69 65 59 59 61 62 62 57 56 61 62 57 49 46 46 46 50 52 49 53 60 57 52 56 65 65 60 59 60 63 69 71 67 65 65 62 56 56 61 62 62 65 62 57 56 53 50 52 57 63 66 65 65 67 67 67 67 65 64 62 61